Location: Catstown
(52.4386°N, 7.2633°W)
Time: 16:53:29
(UTC+00:00)

H-2A R/B - Pass Details

Date: 18 September 2020
Orbit: 734 x 836 km, 98.2° (Epoch: 30 October)

Event Time Altitude Azimuth Distance (km) Brightness Sun altitude
Rises 19:15:07 0° 160° (SSE) 3,166 4.9 -6.7°
Reaches altitude 10° 19:17:22 10° 159° (SSE) 2,255 4.1 -7.1°
Maximum altitude 19:22:20 82° 73° (ENE) 771 2.0 -7.8°
Drops below altitude 10° 19:27:27 10° 347° (NNW) 2,326 4.9 -8.6°
Sets 19:29:48 0° 346° (NNW) 3,273 5.7 -8.9°
